Regional Weather Roundup
Issued by NWS

Home | Current Version | Previous Version | Graphics & Text | Print | Product List | Glossary Off
Versions: 1 2 3 4 5 6 7 8 9 10 11 12 13 14 15 16 17 18 19 20 21 22 23 24 25 26 27 28 29 30 31 32 33 34 35 36 37 38 39 40 41 42 43 44 45 46 47 48 49 50

000
ASUS43 KDTX 030101
RWRMI
MICHIGAN HOURLY REGIONAL WEATHER ROUNDUP
NATIONAL WEATHER SERVICE DETROIT/PONTIAC MI
800 PM EST FRI DEC 02 2016

NOTE: "FAIR" INDICATES FEW OR NO CLOUDS BELOW 12,000 FEET WITH NO
SIGNIFICANT WEATHER AND/OR OBSTRUCTION TO VISIBILITY.

MIZ047>049-052>055-059>063-066>070-074>076-081>083-030200-
SOUTHEAST LOWER MICHIGAN

CITY           SKY/WX    TMP DP  RH WIND       PRES   REMARKS
ADRIAN         CLOUDY    36  29  75 NW8       30.22R WCI  30
ALMA           CLOUDY    36  29  77 W10G16    30.19R WCI  28
ANN ARBOR      CLOUDY    35  26  69 W10       30.19R WCI  27
BAD AXE        CLOUDY    38  32  78 NW15G21   30.11R WCI  30
CARO           CLOUDY    37  32  82 W12G17    30.15R WCI  29
DETROIT CITY   CLOUDY    37  27  67 W8G16     30.17R WCI  31
DETROIT        CLOUDY    37  27  67 W13       30.20R WCI  29
FLINT          CLOUDY    36  28  73 W13       30.18R WCI  27
GROSSE ILE     CLOUDY    37  27  67 NW10G16   30.18R WCI  30
HILLSDALE      CLOUDY    34  27  75 W9        30.20R WCI  26
HOWELL         CLOUDY    35  27  73 W10       30.18R WCI  27

CITY           SKY/WX    TMP DP  RH WIND       PRES   REMARKS
JACKSON        CLOUDY    34  26  72 NW8       30.21R WCI  27
LAMBERTVILLE   CLOUDY    39  30  71 NW5       30.22R
LANSING        CLOUDY    35  26  69 W10       30.21R WCI  27
LAPEER         NOT AVBL
MASON          CLOUDY    34  28  77 W7        30.21R WCI  28
MONROE         CLOUDY    37  28  72 NW10G17   30.20R WCI  29
MT. CLEMENS    MOCLDY    38  28  68 W15       30.13R WCI  29
PONTIAC        CLOUDY    35  27  72 W13       30.15R WCI  26
PORT HOPE        N/A     41  34  76 W14G23    30.07R
PORT HURON     CLOUDY    37  30  75 W8        30.14R WCI  31
TRI CITIES     MOCLDY    35  31  85 W9        30.17R WCI  28
MIDLAND        FAIR      36  29  78 W7        30.16R WCI  30
TROY           CLOUDY    37  26  64 W7        30.18R WCI  32
SAGINAW HB     CLOUDY    36  30  80 W9        30.17R WCI  29
$$
MIZ043>046-050>051-056>058-064>065-071>073-077>080-030200-
SOUTHWEST LOWER MICHIGAN

CITY           SKY/WX    TMP DP  RH WIND       PRES   REMARKS
BATTLE CREEK   CLOUDY    36  28  73 NW7       30.23R WCI  30
BENTON HARBOR  CLOUDY    37  26  64 W5        30.25R WCI  33
BIG RAPIDS     CLOUDY    36  29  76 W9        30.19R WCI  29
COLDWATER      CLOUDY    36  29  75 W7        30.22R WCI  30
FREMONT        CLOUDY    35  26  70 W7        30.22R WCI  29
HOLLAND        CLOUDY    38  28  67 NW8       30.24R WCI  32
GRAND RAPIDS   CLOUDY    36  27  69 NW9       30.24R WCI  29
IONIA          CLOUDY    35  27  71 W8        30.21R WCI  28
KALAMAZOO      CLOUDY    36  27  69 NW7       30.23R WCI  30
LUDINGTON      CLOUDY    37  31  80 W3        30.22R
MARSHALL       CLOUDY    36  29  78 NW5       30.22R WCI  32
MOUNT PLEASANT CLOUDY    36  31  83 W8        30.18R WCI  29
MUSKEGON       CLOUDY    37  28  70 W9        30.25R WCI  30
SOUTH HAVEN    CLOUDY    39  30  68 NW7       30.24S WCI  34
$$
MIZ016>042-030200-
NORTHERN LOWER MICHIGAN

CITY           SKY/WX    TMP DP  RH WIND       PRES   REMARKS
ALPENA         CLOUDY    38  34  85 NW9       30.10R WCI  31
BEAVER ISLAND  CLOUDY    38  34  85 NW8       30.15R WCI  32
BELLAIRE       CLOUDY    38  36  91 NW3       30.16R
CADILLAC       LGT SNOW  33  32  94 W6        30.16R WCI  28
CHARLEVOIX     CLOUDY    39  34  80 NW14      30.18R WCI  31
FRANKFORT      CLOUDY    38  34  85 NW8       30.20R WCI  32
GAYLORD        LGT RAIN  36  33  89 NW6       30.11R WCI  31
GRAYLING       CLOUDY    35  34  96 W7        30.14R FOG     WCI  29
HARBOR SPRINGS CLOUDY    38  35  89 W3        30.14R
HOUGHTON LAKE  CLOUDY    35  31  85 W13       30.14R WCI  26
MANISTEE       LGT RAIN  38  32  79 W9        30.21R WCI  31
OSCODA         CLOUDY    40  33  78 W13G18    30.10R WCI  32
PELLSTON       CLOUDY    38  33  82 NW13      30.13R WCI  30
ROGERS CITY    CLOUDY    39  34  82 NW9G18    30.11R WCI  32
TRAVERSE CITY  CLOUDY    38  34  85 W6        30.17R WCI  33
$$
MIZ007>008-015-030200-
EASTERN UPPER MICHIGAN

CITY           SKY/WX    TMP DP  RH WIND       PRES   REMARKS
KINROSS        LGT RAIN N/A N/A N/A NW13      30.09R
MACKINAC ISLAN CLOUDY    36  33  90 NW13G18   30.11R WCI  27
NEWBERRY       CLOUDY    34  33  96 NW6       30.12R WCI  29
S. S. MARIE    LGT RAIN  36  33  89 NW8       30.09R WCI  30
MUNISING         N/A     38  33  82 N15       30.16R WCI  29
$$
MIZ004>006-011>014-085-030200-
CENTRAL UPPER MICHIGAN

CITY           SKY/WX    TMP DP  RH WIND       PRES   REMARKS
MANISTIQUE     CLOUDY    36  34  93 NW6       30.15R WCI  31
ESCANABA       CLOUDY    35  29  78 W5        30.20R WCI  31
MENOMINEE      CLOUDY    36  28  73 W5        30.23R WCI  32
SAWYER-GWINN   CLOUDY    32  28  86 NW9       30.16R WCI  24
$$
MIZ001>003-009>011-084-030200-
WESTERN UPPER MICHIGAN

CITY           SKY/WX    TMP DP  RH WIND       PRES   REMARKS
IRON MOUNTAIN  CLOUDY    33  25  72 NW5       30.18R WCI  29
HOUGHTON       CLOUDY    33  26  75 NW10      30.18R WCI  25
COPPER HARBOR    N/A     35  28  75 NE15      30.19R WCI  25
IRONWOOD       CLOUDY    28  26  92 W7        30.23R WCI  21
$$

ABBREVIATIONS USED IN REMARKS
   TC - TEMPERATURE IN CELSIUS
  WCI - WIND CHILL INDEX
   HX - HEAT INDEX
  VSB - VISIBILITY





USA.gov is the U.S. government's official web portal to all federal, state and local government web resources and services.